STARLINK-1506, 45747

Orbit data source: Space-Track

STARLINK-1506, 45747 is a payload satellite owned by SpaceX/Seattle (US) in LEO that was launched on Sat, 13 Jun 2020 UTC via an FALCON 9 launch vehicle from the Air Force Eastern Test Range (AFETR). Payload-class satellites include a variety of spacecraft equipped with specific instruments for various scientific and technological missions. These include communications satellites like Starlink; space stations such as the ISS; scientific satellites like the Hubble; Earth observation satellites from companies like Planet Labs, Umbra, and HawkEye 360; GPS; miniature CubeSats for education and research; and military/defense satellites.

Loading next visibility...
Identifier
45747, 2020-038T
Orbit
LEO
Country
Flag of USUS
Related business
Manufacturer
SpaceX/Seattle
Mission
Partially operational Commercial Communications
Bus & Motor
STARLINK, Unknown motor
Mass
260 kg wet, ~248 kg dry
Launch date (UTC)
2020-06-13 (6 years ago)
Launch vehicle
FALCON 9
Launch site
Air Force Eastern Test Range (AFETR)
Object type
Payload
Rocket body
Debris
Shape & HBR
Box + 1 Pan, 10.1 m
Radar Cross Section
13.562 m², Large (>1 m²)

Expand to show TLE details & history
Last TLE update: 21 hours ago

TLE from 21 hours ago
0 STARLINK-1506
1 45747U 20038T   26254.78993067  .00006844  00000-0  23275-3 0  9992
2 45747  53.0746  58.1957 0004237 126.6985 233.4405 15.31610719345155
Epoch: 2026-09-11T18:57Z
TLE epoch observation values (Epoch: 2026-09-11T18:57:30.009Z)
Latitude
-0.00005°
Longitude
143.01239°
Altitude
473.627 km
Speed
7.629 km/s
True Right ascension
03h 52m 46s
True Declination
0° 00' 00"
Sunlit
Object was in partial shadow at epoch
Visualization orbit readout
Latitude
Unknown
Longitude
Unknown
Altitude
Unknown
Speed
Unknown
Apparent Right ascension
Unknown
Apparent Declination
Unknown
Sunlit
N/A
Visualization observer readout
Local Sidereal Time
08:51:39
Azimuth
Unknown
Elevation
Unknown
Doppler factor
Unknown
Orbital elements
Apogee altitude
474.179 km
Perigee altitude
468.374 km
Semi-major axis
6,849.414 km
Eccentricity
0.00042
Inclination
53.0746°
RAAN
58.1957°
Arg. of periapsis
126.6985°
True anomaly
233.40151°
Mean anomaly
233.4405°
Eccentric anomaly
233.42101°
Mean motion
3.8288 °/min
Orbital period
94.02 mins
BSTAR
0.00023275
Loading maneuver chart data...
Computing Atmospheric mass density...

Documentation

Showing up to 5 results
|